x

Olcott Harbor, Ny (olcn6) Weather Station

9:00am - Mon 24th Nov 2014 All times are CST. -6 hours from GMT.

  • Wind
    16mph, 28mph gusts
  • Air Temp 63°f
  • Sea Pressure 991.9mb
  • Olcott Harbor, Ny
  • Olcott Harbor, Ny

More Historic Weather Station data

Upgrade to MSW Pro to gain access to the past 30 days of data for over 8000 Wavebouys and Weather Stations around the globe.

Join Pro

Comparision Forecast

View Surf forecast
   
Mon 11/24 9:00am 16 28 mph 991.9mb 63f
8:50am 16 30 mph 991.5mb 63f
8:40am 15 28 mph 991.9mb 63f
8:30am 17 31 mph 991.5mb 63f
8:20am 16 28 mph 991.5mb 62f
8:10am 16 32 mph 991.5mb 63f
8:00am 18 29 mph 991.5mb 62f
7:50am 17 31 mph 991.5mb 62f
7:40am 20 29 mph 991.5mb 62f
7:30am 11 25 mph 991.5mb 61f
7:20am 13 28 mph 991.5mb 61f
7:10am 14 31 mph 991.5mb 61f
7:00am 21 30 mph 991.2mb 61f
6:50am 15 29 mph 991.2mb 61f
6:40am 18 33 mph 990.9mb 61f
6:30am 18 30 mph 991.2mb 61f
6:20am 18 33 mph 990.9mb 61f
6:10am 14 31 mph 991.2mb 61f
6:00am 17 31 mph 991.2mb 61f
5:50am 18 31 mph 990.9mb 60f
5:40am 14 33 mph 990.9mb 60f
5:30am 17 26 mph 990.9mb 60f
5:20am 15 23 mph 991.2mb 59f
5:10am 18 24 mph 990.9mb 59f
5:00am 17 24 mph 990.9mb 58f
4:50am 11 22 mph 991.2mb 58f
4:40am 15 24 mph 991.2mb 57f
4:30am 15 23 mph 991.2mb 57f
4:20am 14 25 mph 991.5mb 57f
4:10am 13 21 mph 991.5mb 57f
4:00am 13 25 mph 991.5mb 57f
3:50am 16 25 mph 991.9mb 57f
3:40am 17 25 mph 991.9mb 56f
3:30am 18 25 mph 992.2mb 56f
3:20am 18 24 mph 992.2mb 56f
3:10am 16 22 mph 992.6mb 55f
3:00am 15 23 mph 992.9mb 55f
2:50am 14 21 mph 993.2mb 54f
2:40am 13 21 mph 993.6mb 53f
2:30am 11 18 mph 993.9mb 53f
2:20am 10 18 mph 993.9mb 52f
2:10am 10 16 mph 994.2mb 52f
2:00am 13 22 mph 994.9mb 52f
1:50am 13 18 mph 994.9mb 51f
1:40am 11 22 mph 995.3mb 51f
1:30am 14 22 mph 995.3mb 50f
1:20am 13 16 mph 995.9mb 50f
1:10am 10 17 mph 996.6mb 50f
1:00am 9 16 mph 996.6mb 50f
12:50am 10 18 mph 997mb 50f
12:40am 13 17 mph 997.6mb 51f
12:30am 11 17 mph 998.3mb 51f
12:20am 11 18 mph 998.6mb 51f
12:10am 10 17 mph 999mb 51f
12:00am 10 18 mph 999.7mb 51f
Sun 11/23 11:50pm 10 18 mph 1000mb 51f
11:40pm 14 20 mph 1000.3mb 51f
11:30pm 9 16 mph 1001mb 52f
11:20pm 10 17 mph 1001.4mb 53f
11:10pm 13 17 mph 1002mb 54f
11:00pm 9 16 mph 1002.4mb 55f
10:50pm 11 20 mph 1002.7mb 55f
10:40pm 11 18 mph 1003mb 55f
10:30pm 7 14 mph 1003.4mb 55f
10:20pm 8 13 mph 1003.4mb 55f
10:10pm 6 15 mph 1003.7mb 55f
10:00pm 7 14 mph 1003.7mb 55f
9:50pm 8 16 mph 1004.4mb 55f
9:40pm 8 11 mph 1004.4mb 55f
9:30pm 8 13 mph 1005.1mb 54f
9:20pm 7 11 mph 1005.1mb 53f
9:10pm 8 11 mph 1005.1mb 53f
9:00pm 7 9 mph 1005.4mb 49f
8:50pm 7 10 mph 1006.1mb 46f
8:40pm 8 9 mph 1006.1mb 47f
8:30pm 7 9 mph 1006.4mb 50f
8:20pm 8 9 mph 1006.4mb 50f
8:10pm 7 9 mph 1006.8mb 50f
8:00pm 8 9 mph 1007.1mb 50f
7:50pm 7 11 mph 1007.5mb 50f
7:40pm 7 10 mph 1007.8mb 50f
7:30pm 7 9 mph 1007.8mb 49f
7:20pm 7 9 mph 1008.1mb 49f
7:10pm 7 8 mph 1008.5mb 49f
7:00pm 6 8 mph 1008.8mb 48f
6:50pm 7
mph
1009.5mb 48f
6:40pm 5 7 mph 1009.5mb 47f
6:30pm 6 9 mph 1009.8mb 46f
6:20pm 9
mph
1009.8mb 44f
6:10pm 8
mph
1009.8mb 43f
6:00pm 8
mph
1009.8mb 43f
5:50pm 6
mph
1010.2mb 48f
5:40pm 6 7 mph 1010.2mb 48f
5:30pm 5 6 mph 1010.5mb 49f
5:20pm 6 7 mph 1010.8mb 49f
5:10pm 6 7 mph 1010.8mb 49f
5:00pm 6 8 mph 1011.2mb 50f
4:50pm 6 7 mph 1010.8mb 50f
4:40pm 5 8 mph 1011.2mb 50f
4:30pm 6 8 mph 1011.2mb 51f
4:20pm 6 8 mph 1011.5mb 50f
4:10pm 5 7 mph 1011.9mb 50f
4:00pm 5 7 mph 1012.2mb 51f
3:50pm 6 8 mph 1012.2mb 51f
3:40pm 6 9 mph 1012.5mb 51f
3:30pm 6 10 mph 1012.9mb 51f
3:20pm 6 9 mph 1012.5mb 51f
3:10pm 6 10 mph 1012.5mb 51f
3:00pm 7 10 mph 1012.5mb 52f
2:50pm 7 9 mph 1012.9mb 52f
2:40pm 5 10 mph 1012.9mb 52f
2:30pm 7 11 mph 1013.2mb 52f
2:20pm 7 9 mph 1013.5mb 52f
2:10pm 7 9 mph 1013.5mb 52f
2:00pm 5 8 mph 1013.9mb 52f
1:50pm 5 10 mph 1013.9mb 52f
1:40pm 6 9 mph 1014.2mb 51f
1:30pm 5 10 mph 1014.6mb 51f
1:20pm 7 11 mph 1014.6mb 51f
1:10pm 6 11 mph 1014.6mb 51f
1:00pm 8 14 mph 1014.9mb 51f
12:50pm 6 14 mph 1014.9mb 51f
12:40pm 9 14 mph 1015.2mb 51f
12:30pm 8 15 mph 1015.2mb 51f
12:20pm 9 14 mph 1014.9mb 50f
12:10pm 6 14 mph 1015.2mb 50f
12:00pm 10 14 mph 1015.6mb 49f
11:50am 9 14 mph 1015.9mb 49f
11:40am 8 14 mph 1016.3mb 48f
11:30am 10 14 mph 1016.6mb 48f
11:20am 9 13 mph 1016.9mb 48f
11:10am 10 16 mph 1016.6mb 48f
11:00am 11 20 mph 1016.9mb 48f
10:50am 13 21 mph 1017.3mb 48f
10:40am 13 23 mph 1016.9mb 49f
10:30am 13 24 mph 1017.3mb 49f
10:20am 9 18 mph 1017.3mb 50f
10:10am 14 17 mph 1017.3mb 51f
10:00am 13 20 mph 1017.3mb 50f
9:50am 10 20 mph 1017.3mb 51f
9:40am 14 20 mph 1017.3mb 51f
9:30am 10 20 mph 1017.6mb 51f
9:20am 10 21 mph 1017.3mb 51f
9:10am 10 16 mph 1017.3mb 51f
9:00am 10 20 mph 1017.3mb 51f
8:50am 8 15 mph 1016.9mb 51f
8:40am 8 13 mph 1017.3mb 51f
8:30am 10 16 mph 1017.3mb 51f
8:20am 9 14 mph 1017.3mb 51f
8:10am 7 11 mph 1017.3mb 51f
8:00am 6 14 mph 1017.3mb 51f
7:50am 8 11 mph 1017.3mb 51f
7:40am 6 10 mph 1017.3mb 51f
7:30am 7 11 mph 1017.3mb 50f
7:20am 7 11 mph 1017.3mb 50f
7:10am 7 11 mph 1017.3mb 50f
7:00am 8 13 mph 1017.3mb 50f
6:50am 7 10 mph 1016.9mb 50f
6:40am 7 10 mph 1016.9mb 50f
6:30am 6 8 mph 1016.9mb 50f
6:20am 5 8 mph 1016.9mb 50f
6:10am 7 10 mph 1016.9mb 50f
6:00am 7 11 mph 1016.6mb 50f
5:50am 6 13 mph 1016.6mb 50f
5:40am 7 11 mph 1016.6mb 50f
5:30am 6 11 mph 1016.6mb 50f
5:20am 8 11 mph 1016.6mb 50f
5:10am 6 10 mph 1016.6mb 50f
5:00am 6 8 mph 1016.3mb 49f
4:50am 6 8 mph 1015.9mb 49f
4:40am 6 9 mph 1015.9mb 49f
4:30am 5 10 mph 1015.9mb 50f
4:20am 6 10 mph 1015.9mb 50f
4:10am 8 13 mph 1015.9mb 50f
4:00am 8 13 mph 1015.6mb 50f
3:50am 10 17 mph 1015.6mb 50f
3:40am 10 15 mph 1015.6mb 50f
3:30am 10 16 mph 1015.6mb 50f
3:20am 10 15 mph 1015.6mb 50f
3:10am 10 15 mph 1015.6mb 49f
3:00am 9 15 mph 1015.6mb 49f
2:50am 8 15 mph 1015.6mb 50f
2:40am 8 14 mph 1015.6mb 50f
2:30am 7 14 mph 1015.6mb 50f
2:20am 8 13 mph 1015.6mb 49f
2:10am 7 13 mph 1015.6mb 49f
2:00am 10 17 mph 1015.6mb 49f
1:50am 8 18 mph 1015.6mb 49f
1:40am 11 22 mph 1015.6mb 49f
1:30am 10 17 mph 1015.6mb 48f
1:20am 11 17 mph 1015.6mb 48f
1:10am 11 18 mph 1015.6mb 48f
1:00am 13 17 mph 1015.6mb 47f
12:50am 13 18 mph 1015.6mb 47f
12:40am 9 17 mph 1015.6mb 47f
12:30am 11 20 mph 1015.6mb 47f
12:20am 13 20 mph 1015.6mb 47f
12:10am 13 20 mph 1015.6mb 47f
12:00am 13 20 mph 1015.6mb 47f
Sat 11/22 11:50pm 14 24 mph 1015.6mb 47f
11:40pm 11 25 mph 1015.6mb 47f
11:30pm 14 21 mph 1015.6mb 47f
11:20pm 15 23 mph 1015.2mb 47f
11:10pm 13 23 mph 1015.6mb 47f
11:00pm 13 29 mph 1015.6mb 48f
10:50pm 11 21 mph 1015.2mb 48f
10:40pm 14 24 mph 1015.2mb 48f
10:30pm 14 21 mph 1015.2mb 47f
10:20pm 15 20 mph 1014.9mb 47f
10:10pm 13 21 mph 1015.2mb 47f
10:00pm 15 21 mph 1015.2mb 47f
9:50pm 16 22 mph 1015.2mb 47f
9:40pm 13 21 mph 1015.2mb 47f
9:30pm 13 25 mph 1014.9mb 47f
9:20pm 17 23 mph 1014.9mb 47f
9:10pm 14 24 mph 1014.9mb 47f
9:00pm 14 24 mph 1014.9mb 47f
8:50pm 14 24 mph 1015.2mb 47f
8:40pm 13 25 mph 1014.9mb 47f
8:30pm 14 21 mph 1014.9mb 47f
8:20pm 15 22 mph 1014.9mb 47f
8:10pm 14 20 mph 1014.9mb 47f
8:00pm 11 16 mph 1015.2mb 46f
7:50pm 11 23 mph 1015.2mb 47f
7:40pm 13 18 mph 1014.9mb 47f
7:30pm 13 21 mph 1014.9mb 47f
7:20pm 15 21 mph 1014.9mb 47f
7:10pm 14 21 mph 1015.2mb 47f
7:00pm 11 20 mph 1015.2mb 48f
6:50pm 11 24 mph 1015.2mb 48f
6:40pm 10 20 mph 1015.2mb 47f
6:30pm 15 20 mph 1015.2mb 47f
6:20pm 15 23 mph 1015.2mb 47f
6:10pm 15 23 mph 1015.2mb 47f
6:00pm 13 21 mph 1015.2mb 47f
5:50pm 15 28 mph 1014.9mb 47f
5:40pm 15 21 mph 1015.2mb 47f
5:30pm 13 23 mph 1015.2mb 47f
5:20pm 13 20 mph 1015.6mb 46f
5:10pm 13 22 mph 1015.6mb 46f
5:00pm 16 23 mph 1015.2mb 46f
4:50pm 18 26 mph 1015.2mb 46f
4:40pm 13 22 mph 1015.6mb 46f
4:30pm 10 18 mph 1015.6mb 46f
4:20pm 11 24 mph 1015.6mb 46f
4:10pm 16 24 mph 1015.6mb 45f
4:00pm 14 20 mph 1015.6mb 45f
3:50pm 15 22 mph 1015.6mb 45f
3:40pm 13 22 mph 1015.6mb 45f
3:30pm 10 20 mph 1015.9mb 45f
3:20pm 11 21 mph 1015.6mb 45f
3:10pm 15 24 mph 1015.9mb 45f
3:00pm 13 26 mph 1015.9mb 44f
2:50pm 14 21 mph 1015.6mb 44f
2:40pm 15 22 mph 1015.6mb 44f
2:30pm 16 23 mph 1015.9mb 44f
2:20pm 16 26 mph 1015.9mb 44f
2:10pm 14 26 mph 1015.9mb 44f
2:00pm 16 26 mph 1015.9mb 44f
1:50pm 16 24 mph 1015.6mb 43f
1:40pm 17 25 mph 1015.6mb 43f
1:30pm 16 23 mph 1015.9mb 42f
1:20pm 15 24 mph 1015.2mb 42f
1:10pm 13 24 mph 1015.6mb 42f
Fri 11/21 3:00pm 11 16 mph 1030.8mb 29f
2:50pm 13 18 mph 1030.5mb 29f
2:40pm 11 17 mph 1030.8mb 29f
2:30pm 13 20 mph 1030.5mb 29f
2:20pm 16 20 mph 1030.5mb 29f
2:10pm 20 23 mph 1030.1mb 29f
2:00pm 18 23 mph 1030.1mb 29f
1:50pm 17 24 mph 1030.1mb 29f
1:40pm 20 24 mph 1030.1mb 29f
1:30pm 21 25 mph 1029.8mb 29f
1:20pm 11 15 mph 1030.1mb 29f
1:10pm 10 16 mph 1030.1mb 28f
12:00am 14 17 mph 1017.6mb 21f
Thu 11/20 11:50pm 13 18 mph 1017.6mb 21f
11:40pm 14 24 mph 1017.3mb 22f
11:30pm 13 23 mph 1017.3mb 22f
11:20pm 13 20 mph 1017.3mb 22f
11:10pm 11 17 mph 1016.9mb 22f
11:00pm 14 24 mph 1016.9mb 22f
10:50pm 11 17 mph 1016.6mb 23f
10:40pm 11 18 mph 1016.6mb 22f
10:30pm 10 15 mph 1016.6mb 22f
10:20pm 11 17 mph 1016.6mb 22f
10:10pm 11 18 mph 1016.3mb 23f
10:00pm 13 20 mph 1016.3mb 23f
9:50pm 11 24 mph 1015.9mb 24f
9:40pm 16 37 mph 1015.9mb 27f
9:30pm 36 43 mph 1014.6mb 28f
9:20pm 32 38 mph 1014.9mb 28f
9:10pm 32 38 mph 1014.6mb 28f
9:00pm 33 39 mph 1014.6mb 28f
8:50pm 33 39 mph 1014.2mb 28f
8:40pm 34 39 mph 1014.2mb 28f
8:30pm 29 44 mph 1014.6mb 28f
8:20pm 32 40 mph 1014.6mb 28f
8:10pm 36 44 mph 1014.2mb 28f
7:00pm 32 41 mph 1014.2mb 29f
6:50pm 36 41 mph 1013.9mb 28f
6:40pm 33 41 mph 1013.9mb 29f
6:30pm 32 39 mph 1013.9mb 28f
6:20pm 32 37 mph 1013.9mb 28f
6:10pm 33 41 mph 1013.5mb 28f
6:00pm 32 37 mph 1013.9mb 29f
5:50pm 32 38 mph 1013.5mb 29f
5:40pm 22 43 mph 1013.9mb 28f
5:30pm 34 60 mph 1013.5mb 26f
5:20pm 30 39 mph 1013.2mb 28f
5:10pm 32 38 mph 1012.9mb 27f
5:00pm 24 37 mph 1013.5mb 28f
4:50pm 31 38 mph 1012.5mb 28f
4:40pm 32 37 mph 1012.9mb 29f
4:30pm 24 37 mph 1012.9mb 29f